QPF
0.04 0.02 0.01 0.01 0.01 0.01 0.01 0.01 0.01 0.01 0.03 0.04 0.02 0.04 0.04 0.04 0.04 0.05 0.07 0.09 0.09 0.08 0.11 0.08 0.09 0.08 0.08 0.08 0.07 0.08 0.07 0.04 0.04 0.05 0.07 0.09 0.13 0.11 0.08 0.06 0.04 0.04 0.05 0.09
0.03 0.02 0.00 0.00 0.01 0.01 0.01 0.01 0.01 0.01 0.01 0.02 0.02 0.04 0.05 0.04 0.04 0.05 0.06 0.07 0.08 0.07 0.08 0.06 0.05 0.05 0.05 0.04 0.05 0.08 0.09 0.05 0.02 0.02 0.06 0.07 0.10 0.11 0.06 0.04 0.04 0.02 0.02 0.04
0.02 0.01 0.01 0.00 0.01 0.01 0.00 0.00 0.01 0.01 0.00 0.01 0.02 0.03 0.04 0.04 0.03 0.04 0.05 0.06 0.07 0.06 0.05 0.05 0.04 0.04 0.03 0.03 0.03 0.05 0.06 0.03 0.01 0.01 0.02 0.05 0.06 0.09 0.08 0.04 0.02 0.01 0.01 0.02
0.01 0.01 0.01 0.00 0.00 0.00 0.00 0.00 0.01 0.01 0.00 0.00 0.02 0.03 0.03 0.03 0.02 0.03 0.03 0.04 0.04 0.04 0.04 0.04 0.04 0.04 0.02 0.02 0.01 0.01 0.02 0.02 0.01 0.00 0.00 0.02 0.05 0.06 0.07 0.04 0.02 0.01 0.00 0.01
0.01 0.01 0.00 0.00 0.00 0.00 0.01 0.01 0.01 0.01 0.00 0.00 0.00 0.01 0.02 0.02 0.02 0.02 0.03 0.03 0.03 0.03 0.03 0.03 0.03 0.03 0.02 0.01 0.01 0.00 0.01 0.01 0.00 0.00 0.00 0.00 0.03 0.05 0.06 0.05 0.03 0.02 0.01 0.01
0.01 0.01 0.00 0.00 0.00 0.00 0.00 0.00 0.00 0.00 0.00 0.00 0.00 0.00 0.01 0.01 0.01 0.02 0.01 0.02 0.02 0.02 0.02 0.02 0.01 0.02 0.02 0.01 0.00 0.00 0.00 0.00 0.00 0.00 0.00 0.00 0.01 0.02 0.05 0.06 0.04 0.02 0.01 0.01
0.01 0.01 0.00 0.00 0.00 0.00 0.00 0.00 0.00 0.00 0.01 0.00 0.00 0.00 0.01 0.01 0.01 0.01 0.01 0.01 0.01 0.01 0.01 0.00 0.00 0.01 0.01 0.00 0.00 0.00 0.00 0.00 0.00 0.00 0.00 0.00 0.00 0.01 0.03 0.05 0.05 0.03 0.01 0.01
0.01 0.01 0.00 0.00 0.00 0.00 0.00 0.00 0.00 0.00 0.00 0.00 0.00 0.00 0.01 0.01 0.01 0.01 0.00 0.00 0.01 0.01 0.00 0.00 0.00 0.00 0.00 0.00 0.00 0.01 0.01 0.00 0.00 0.00 0.00 0.01 0.01 0.01 0.03 0.05 0.04 0.04 0.03 0.01
0.00 0.00 0.00 0.00 0.00 0.00 0.00 0.00 0.00 0.01 0.00 0.00 0.00 0.00 0.00 0.01 0.00 0.01 0.01 0.00 0.01 0.00 0.00 0.00 0.00 0.01 0.00 0.00 0.01 0.01 0.01 0.00 0.00 0.00 0.01 0.01 0.01 0.03 0.04 0.05 0.05 0.04 0.03 0.03
0.00 0.00 0.00 0.00 0.01 0.00 0.00 0.00 0.00 0.01 0.01 0.00 0.00 0.00 0.01 0.02 0.01 0.01 0.02 0.01 0.02 0.02 0.01 0.01 0.01 0.01 0.01 0.00 0.01 0.01 0.01 0.00 0.00 0.01 0.01 0.02 0.03 0.04 0.04 0.05 0.05 0.04 0.03 0.04
0.00 0.00 0.00 0.00 0.01 0.00 0.00 0.00 0.00 0.01 0.01 0.00 0.00 0.00 0.02 0.03 0.02 0.01 0.02 0.03 0.03 0.02 0.01 0.02 0.02 0.01 0.01 0.01 0.01 0.01 0.01 0.01 0.01 0.01 0.02 0.02 0.03 0.03 0.03 0.03 0.03 0.02 0.02 0.02
0.00 0.00 0.00 0.00 0.00 0.00 0.01 0.00 0.00 0.00 0.00 0.00 0.00 0.00 0.01 0.02 0.02 0.01 0.01 0.02 0.03 0.03 0.03 0.04 0.03 0.01 0.01 0.01 0.01 0.01 0.01 0.01 0.01 0.02 0.02 0.02 0.02 0.02 0.02 0.02 0.02 0.01 0.01 0.01
0.00 0.00 0.00 0.00 0.01 0.01 0.02 0.01 0.01 0.01 0.01 0.00 0.00 0.00 0.00 0.01 0.01 0.01 0.01 0.02 0.02 0.02 0.03 0.03 0.02 0.02 0.02 0.01 0.01 0.00 0.01 0.01 0.01 0.02 0.02 0.02 0.02 0.01 0.02 0.01 0.01 0.01 0.01 0.01
0.00 0.00 0.00 0.00 0.00 0.00 0.01 0.01 0.01 0.01 0.00 0.00 0.00 0.00 0.00 0.00 0.01 0.02 0.01 0.02 0.03 0.03 0.03 0.03 0.03 0.03 0.02 0.01 0.01 0.01 0.01 0.01 0.01 0.01 0.01 0.02 0.02 0.01 0.01 0.01 0.02 0.02 0.02 0.01
0.00 0.00 0.00 0.00 0.00 0.00 0.00 0.00 0.00 0.00 0.00 0.00 0.00 0.00 0.00 0.00 0.01 0.02 0.01 0.01 0.02 0.02 0.03 0.03 0.03 0.03 0.03 0.02 0.01 0.01 0.01 0.01 0.01 0.01 0.01 0.01 0.01 0.02 0.01 0.01 0.02 0.02 0.02 0.01
0.00 0.00 0.00 0.00 0.00 0.00 0.00 0.00 0.00 0.00 0.00 0.00 0.00 0.00 0.00 0.00 0.00 0.01 0.01 0.01 0.01 0.02 0.02 0.03 0.03 0.03 0.03 0.02 0.01 0.01 0.02 0.01 0.01 0.01 0.01 0.01 0.01 0.02 0.02 0.02 0.02 0.02 0.02 0.01
0.00 0.00 0.00 0.00 0.00 0.00 0.00 0.00 0.00 0.00 0.00 0.00 0.00 0.00 0.00 0.00 0.00 0.00 0.00 0.01 0.01 0.01 0.01 0.02 0.02 0.02 0.02 0.01 0.01 0.01 0.01 0.01 0.01 0.01 0.01 0.01 0.01 0.01 0.01 0.01 0.01 0.01 0.01 0.01
0.00 0.00 0.00 0.00 0.00 0.00 0.00 0.00 0.00 0.00 0.00 0.00 0.00 0.00 0.00 0.00 0.00 0.00 0.00 0.00 0.00 0.01 0.01 0.01 0.01 0.01 0.01 0.01 0.00 0.00 0.00 0.00 0.01 0.01 0.01 0.01 0.01 0.01 0.01 0.01 0.01 0.01 0.01 0.01
0.00 0.00 0.00 0.00 0.00 0.00 0.00 0.00 0.00 0.00 0.00 0.00 0.00 0.00 0.00 0.00 0.00 0.00 0.00 0.00 0.00 0.00 0.00 0.00 0.01 0.00 0.00 0.00 0.00 0.00 0.00 0.00 0.00 0.01 0.01 0.01 0.01 0.01 0.01 0.01 0.01 0.01 0.01 0.00
0.00 0.00 0.00 0.00 0.00 0.00 0.00 0.00 0.00 0.00 0.00 0.00 0.00 0.00 0.00 0.00 0.00 0.00 0.00 0.00 0.00 0.00 0.00 0.00 0.00 0.00 0.00 0.00 0.00 0.00 0.00 0.00 0.00 0.00 0.00 0.00 0.01 0.01 0.01 0.01 0.01 0.01 0.00 0.00
0.00 0.00 0.00 0.00 0.00 0.00 0.00 0.00 0.00 0.00 0.00 0.00 0.00 0.00 0.00 0.00 0.00 0.00 0.00 0.00 0.00 0.00 0.00 0.00 0.00 0.00 0.00 0.00 0.00 0.00 0.00 0.00 0.00 0.00 0.00 0.00 0.00 0.01 0.01 0.01 0.01 0.01 0.00 0.00
0.00 0.00 0.00 0.00 0.01 0.00 0.00 0.00 0.00 0.00 0.00 0.00 0.00 0.00 0.00 0.00 0.00 0.00 0.00 0.00 0.00 0.00 0.00 0.00 0.00 0.00 0.00 0.00 0.00 0.00 0.00 0.00 0.00 0.00 0.00 0.00 0.00 0.00 0.00 0.00 0.00 0.00 0.00 0.00
0.00 0.00 0.00 0.00 0.00 0.00 0.00 0.00 0.00 0.00 0.00 0.00 0.00 0.00 0.00 0.00 0.00 0.00 0.00 0.00 0.00 0.00 0.00 0.00 0.00 0.00 0.00 0.00 0.00 0.00 0.00 0.00 0.00 0.00 0.00 0.00 0.00 0.00 0.00 0.00 0.00 0.00 0.00 0.00
0.00 0.00 0.00 0.00 0.00 0.00 0.00 0.00 0.00 0.00 0.00 0.01 0.00 0.00 0.00 0.00 0.00 0.00 0.00 0.00 0.00 0.00 0.00 0.00 0.00 0.00 0.00 0.00 0.00 0.00 0.00 0.00 0.00 0.00 0.00 0.00 0.00 0.00 0.00 0.00 0.00 0.00 0.00 0.00
0.00 0.00 0.00 0.00 0.00 0.00 0.00 0.00 0.00 0.00 0.00 0.00 0.00 0.00 0.00 0.00 0.00 0.00 0.00 0.00 0.00 0.00 0.00 0.00 0.00 0.00 0.00 0.00 0.00 0.00 0.00 0.00 0.00 0.00 0.00 0.00 0.00 0.00 0.00 0.00 0.00 0.00 0.00 0.00
0.00 0.00 0.00 0.00 0.00 0.00 0.00 0.00 0.00 0.00 0.00 0.00 0.00 0.00 0.00 0.00 0.00 0.00 0.00 0.00 0.00 0.00 0.00 0.00 0.00 0.00 0.00 0.00 0.00 0.00 0.00 0.00 0.00 0.00 0.00 0.00 0.00 0.00 0.00 0.00 0.00 0.00 0.00 0.00
MSLP
1013.74 1013.66 1013.55 1013.41 1013.25 1013.06 1012.85 1012.66 1012.50 1012.42 1012.43 1012.56 1012.82 1013.20 1013.66 1014.18 1014.71 1015.22 1015.67 1016.07 1016.41 1016.71 1017.00 1017.30 1017.64 1018.01 1018.43 1018.86 1019.29 1019.69 1020.05 1020.34 1020.57 1020.74 1020.87 1020.96 1021.04 1021.12 1021.20 1021.30 1021.39 1021.47 1021.55 1021.60
1013.56 1013.46 1013.33 1013.16 1012.98 1012.78 1012.59 1012.43 1012.32 1012.29 1012.37 1012.56 1012.85 1013.24 1013.70 1014.19 1014.68 1015.14 1015.55 1015.90 1016.21 1016.48 1016.74 1017.02 1017.33 1017.70 1018.10 1018.53 1018.97 1019.39 1019.77 1020.09 1020.35 1020.54 1020.69 1020.79 1020.88 1020.96 1021.04 1021.13 1021.23 1021.33 1021.43 1021.51
1013.62 1013.52 1013.38 1013.20 1012.99 1012.78 1012.59 1012.43 1012.35 1012.34 1012.44 1012.64 1012.93 1013.31 1013.73 1014.19 1014.63 1015.04 1015.40 1015.70 1015.96 1016.20 1016.44 1016.69 1016.99 1017.34 1017.73 1018.16 1018.61 1019.05 1019.45 1019.80 1020.08 1020.31 1020.47 1020.60 1020.68 1020.76 1020.84 1020.92 1021.02 1021.13 1021.24 1021.34
1013.91 1013.82 1013.68 1013.49 1013.27 1013.04 1012.83 1012.66 1012.56 1012.54 1012.62 1012.80 1013.07 1013.40 1013.79 1014.19 1014.58 1014.93 1015.25 1015.52 1015.75 1015.96 1016.18 1016.42 1016.70 1017.03 1017.41 1017.83 1018.27 1018.72 1019.13 1019.50 1019.82 1020.07 1020.25 1020.39 1020.48 1020.56 1020.63 1020.70 1020.78 1020.88 1020.98 1021.09
1014.35 1014.29 1014.16 1013.97 1013.74 1013.49 1013.25 1013.04 1012.91 1012.85 1012.89 1013.02 1013.24 1013.52 1013.85 1014.20 1014.54 1014.86 1015.15 1015.40 1015.62 1015.82 1016.03 1016.26 1016.52 1016.83 1017.19 1017.59 1018.02 1018.45 1018.87 1019.25 1019.58 1019.84 1020.04 1020.19 1020.29 1020.36 1020.42 1020.47 1020.54 1020.61 1020.70 1020.79
1014.86 1014.82 1014.70 1014.52 1014.28 1014.00 1013.73 1013.49 1013.31 1013.20 1013.18 1013.26 1013.41 1013.64 1013.92 1014.23 1014.54 1014.84 1015.12 1015.37 1015.60 1015.81 1016.03 1016.25 1016.51 1016.80 1017.13 1017.50 1017.89 1018.30 1018.69 1019.06 1019.38 1019.65 1019.85 1020.00 1020.11 1020.17 1020.21 1020.25 1020.29 1020.34 1020.40 1020.47
1015.33 1015.31 1015.20 1015.02 1014.78 1014.49 1014.20 1013.92 1013.68 1013.52 1013.45 1013.46 1013.56 1013.73 1013.97 1014.25 1014.55 1014.85 1015.15 1015.43 1015.69 1015.93 1016.16 1016.40 1016.65 1016.92 1017.22 1017.55 1017.89 1018.25 1018.60 1018.94 1019.24 1019.49 1019.69 1019.83 1019.92 1019.98 1020.01 1020.02 1020.04 1020.06 1020.09 1020.14
1015.71 1015.68 1015.58 1015.41 1015.16 1014.87 1014.56 1014.25 1013.98 1013.77 1013.64 1013.60 1013.64 1013.78 1013.98 1014.24 1014.55 1014.87 1015.20 1015.53 1015.84 1016.13 1016.40 1016.66 1016.91 1017.17 1017.44 1017.71 1018.00 1018.30 1018.60 1018.88 1019.14 1019.36 1019.53 1019.66 1019.74 1019.78 1019.79 1019.79 1019.78 1019.78 1019.79 1019.81
1015.94 1015.91 1015.81 1015.64 1015.40 1015.11 1014.79 1014.47 1014.17 1013.93 1013.76 1013.67 1013.67 1013.77 1013.95 1014.21 1014.52 1014.87 1015.25 1015.62 1015.99 1016.34 1016.66 1016.95 1017.22 1017.47 1017.71 1017.95 1018.19 1018.42 1018.65 1018.87 1019.08 1019.25 1019.39 1019.49 1019.55 1019.57 1019.57 1019.55 1019.53 1019.51 1019.49 1019.49
1016.07 1016.01 1015.91 1015.74 1015.51 1015.23 1014.91 1014.59 1014.28 1014.02 1013.81 1013.69 1013.66 1013.73 1013.88 1014.13 1014.45 1014.83 1015.24 1015.67 1016.09 1016.50 1016.87 1017.21 1017.50 1017.76 1017.99 1018.20 1018.39 1018.57 1018.74 1018.90 1019.04 1019.17 1019.26 1019.33 1019.36 1019.37 1019.35 1019.32 1019.28 1019.25 1019.22 1019.19
1016.13 1016.06 1015.94 1015.77 1015.55 1015.28 1014.98 1014.66 1014.35 1014.08 1013.85 1013.70 1013.64 1013.67 1013.80 1014.03 1014.34 1014.73 1015.16 1015.63 1016.10 1016.56 1016.98 1017.36 1017.70 1017.98 1018.21 1018.41 1018.57 1018.72 1018.84 1018.95 1019.04 1019.12 1019.17 1019.20 1019.21 1019.19 1019.16 1019.12 1019.07 1019.02 1018.97 1018.93
1016.21 1016.11 1015.98 1015.81 1015.60 1015.35 1015.06 1014.75 1014.44 1014.15 1013.91 1013.73 1013.63 1013.63 1013.72 1013.92 1014.21 1014.59 1015.03 1015.51 1016.01 1016.51 1016.98 1017.41 1017.78 1018.10 1018.36 1018.57 1018.73 1018.86 1018.95 1019.03 1019.08 1019.12 1019.14 1019.13 1019.11 1019.08 1019.02 1018.96 1018.90 1018.84 1018.78 1018.72
1016.36 1016.24 1016.10 1015.92 1015.71 1015.46 1015.18 1014.88 1014.57 1014.27 1014.01 1013.81 1013.68 1013.64 1013.69 1013.85 1014.10 1014.45 1014.87 1015.34 1015.86 1016.38 1016.88 1017.35 1017.77 1018.14 1018.43 1018.67 1018.85 1018.99 1019.08 1019.14 1019.18 1019.19 1019.18 1019.15 1019.10 1019.04 1018.97 1018.89 1018.81 1018.73 1018.65 1018.57
1016.59 1016.45 1016.30 1016.12 1015.90 1015.64 1015.36 1015.05 1014.74 1014.44 1014.16 1013.94 1013.78 1013.70 1013.71 1013.82 1014.03 1014.34 1014.73 1015.19 1015.69 1016.22 1016.75 1017.25 1017.72 1018.12 1018.47 1018.75 1018.97 1019.13 1019.24 1019.30 1019.33 1019.33 1019.30 1019.25 1019.18 1019.09 1018.99 1018.89 1018.78 1018.68 1018.57 1018.46
1016.88 1016.73 1016.56 1016.35 1016.12 1015.85 1015.55 1015.24 1014.92 1014.61 1014.33 1014.09 1013.91 1013.81 1013.79 1013.86 1014.04 1014.31 1014.66 1015.09 1015.58 1016.11 1016.65 1017.17 1017.67 1018.12 1018.51 1018.83 1019.09 1019.28 1019.42 1019.50 1019.54 1019.53 1019.49 1019.42 1019.33 1019.21 1019.09 1018.95 1018.81 1018.66 1018.52 1018.37
1017.16 1016.99 1016.80 1016.57 1016.31 1016.01 1015.70 1015.37 1015.05 1014.74 1014.46 1014.23 1014.05 1013.94 1013.91 1013.97 1014.12 1014.37 1014.70 1015.11 1015.58 1016.09 1016.63 1017.17 1017.69 1018.16 1018.58 1018.94 1019.23 1019.46 1019.62 1019.71 1019.76 1019.76 1019.71 1019.63 1019.51 1019.37 1019.21 1019.04 1018.85 1018.66 1018.47 1018.27
1017.35 1017.16 1016.94 1016.68 1016.38 1016.06 1015.73 1015.39 1015.07 1014.77 1014.51 1014.30 1014.15 1014.07 1014.06 1014.13 1014.28 1014.53 1014.85 1015.25 1015.70 1016.21 1016.74 1017.27 1017.79 1018.28 1018.71 1019.08 1019.39 1019.63 1019.80 1019.91 1019.96 1019.96 1019.91 1019.81 1019.68 1019.51 1019.32 1019.10 1018.87 1018.63 1018.38 1018.12
1017.38 1017.17 1016.91 1016.61 1016.28 1015.93 1015.58 1015.24 1014.93 1014.66 1014.44 1014.28 1014.19 1014.15 1014.20 1014.31 1014.50 1014.77 1015.10 1015.51 1015.96 1016.46 1016.97 1017.49 1018.00 1018.47 1018.88 1019.25 1019.54 1019.77 1019.94 1020.04 1020.09 1020.08 1020.02 1019.91 1019.76 1019.57 1019.35 1019.09 1018.82 1018.52 1018.22 1017.90
1017.21 1016.97 1016.67 1016.34 1015.98 1015.61 1015.25 1014.93 1014.64 1014.42 1014.26 1014.17 1014.14 1014.19 1014.30 1014.49 1014.74 1015.05 1015.43 1015.85 1016.31 1016.80 1017.30 1017.80 1018.27 1018.70 1019.08 1019.40 1019.66 1019.86 1020.00 1020.08 1020.10 1020.08 1020.01 1019.89 1019.73 1019.52 1019.27 1018.98 1018.67 1018.32 1017.97 1017.60
1016.85 1016.57 1016.24 1015.88 1015.50 1015.12 1014.78 1014.48 1014.24 1014.08 1013.99 1013.97 1014.04 1014.17 1014.38 1014.64 1014.97 1015.35 1015.77 1016.23 1016.71 1017.20 1017.68 1018.14 1018.57 1018.94 1019.27 1019.53 1019.72 1019.87 1019.95 1019.99 1019.99 1019.94 1019.85 1019.72 1019.55 1019.33 1019.07 1018.76 1018.41 1018.03 1017.63 1017.21
1016.34 1016.02 1015.67 1015.29 1014.91 1014.55 1014.23 1013.98 1013.80 1013.70 1013.68 1013.75 1013.90 1014.13 1014.42 1014.77 1015.18 1015.62 1016.09 1016.59 1017.09 1017.58 1018.04 1018.47 1018.84 1019.16 1019.41 1019.59 1019.71 1019.78 1019.81 1019.79 1019.74 1019.67 1019.56 1019.42 1019.24 1019.01 1018.74 1018.42 1018.06 1017.66 1017.22 1016.77
1015.74 1015.39 1015.02 1014.65 1014.29 1013.96 1013.70 1013.50 1013.38 1013.36 1013.42 1013.56 1013.79 1014.09 1014.46 1014.88 1015.35 1015.85 1016.37 1016.90 1017.41 1017.90 1018.35 1018.74 1019.06 1019.31 1019.48 1019.58 1019.62 1019.62 1019.57 1019.50 1019.40 1019.29 1019.16 1019.01 1018.83 1018.60 1018.33 1018.00 1017.63 1017.22 1016.77 1016.29
1015.12 1014.75 1014.38 1014.03 1013.72 1013.45 1013.25 1013.12 1013.08 1013.12 1013.25 1013.46 1013.74 1014.10 1014.52 1014.99 1015.50 1016.04 1016.59 1017.14 1017.66 1018.14 1018.57 1018.92 1019.19 1019.37 1019.48 1019.50 1019.46 1019.38 1019.27 1019.14 1019.00 1018.85 1018.70 1018.54 1018.35 1018.12 1017.85 1017.53 1017.16 1016.73 1016.28 1015.79
1014.51 1014.13 1013.79 1013.49 1013.24 1013.05 1012.94 1012.89 1012.92 1013.03 1013.21 1013.47 1013.79 1014.17 1014.62 1015.11 1015.64 1016.19 1016.75 1017.30 1017.82 1018.29 1018.69 1019.00 1019.23 1019.35 1019.39 1019.35 1019.25 1019.10 1018.93 1018.75 1018.57 1018.39 1018.22 1018.04 1017.84 1017.61 1017.34 1017.02 1016.64 1016.22 1015.76 1015.27
1013.94 1013.58 1013.28 1013.04 1012.88 1012.79 1012.76 1012.81 1012.92 1013.09 1013.32 1013.61 1013.95 1014.34 1014.78 1015.26 1015.78 1016.32 1016.86 1017.40 1017.90 1018.34 1018.71 1018.98 1019.16 1019.24 1019.23 1019.13 1018.98 1018.78 1018.57 1018.35 1018.13 1017.93 1017.74 1017.54 1017.33 1017.09 1016.81 1016.48 1016.11 1015.68 1015.21 1014.71
1013.40 1013.07 1012.84 1012.69 1012.62 1012.63 1012.71 1012.85 1013.04 1013.27 1013.54 1013.85 1014.20 1014.58 1015.00 1015.46 1015.94 1016.45 1016.96 1017.45 1017.91 1018.31 1018.64 1018.87 1019.01 1019.04 1018.99 1018.86 1018.66 1018.44 1018.19 1017.94 1017.71 1017.48 1017.27 1017.05 1016.83 1016.57 1016.27 1015.93 1015.53 1015.09 1014.61 1014.11
Thickness
5570 5573 5571 5573 5574 5578 5583 5587 5588 5587 5585 5591 5597 5602 5606 5607 5609 5613 5618 5620 5622 5624 5625 5625 5626 5626 5625 5625 5625 5625 5623 5621 5620 5620 5619 5619 5619 5617 5617 5615 5614 5613 5613 5612
5573 5569 5566 5568 5571 5576 5580 5584 5584 5583 5584 5589 5594 5600 5607 5607 5608 5612 5615 5618 5620 5621 5621 5620 5620 5620 5620 5620 5619 5619 5618 5615 5614 5613 5613 5611 5610 5610 5609 5608 5607 5605 5604 5604
5570 5565 5564 5568 5571 5575 5578 5582 5583 5583 5583 5588 5592 5602 5606 5607 5607 5608 5611 5614 5616 5618 5618 5617 5616 5614 5614 5613 5613 5613 5611 5609 5608 5607 5605 5603 5602 5601 5601 5601 5600 5598 5596 5596
5564 5562 5564 5569 5570 5574 5577 5574 5576 5578 5587 5591 5591 5599 5609 5607 5607 5608 5609 5611 5613 5613 5613 5613 5611 5610 5608 5608 5606 5605 5604 5602 5601 5600 5599 5599 5599 5598 5596 5594 5592 5591 5589 5589
5562 5561 5564 5567 5565 5569 5571 5570 5574 5578 5584 5587 5589 5593 5610 5604 5608 5610 5609 5608 5609 5608 5607 5606 5605 5604 5603 5601 5599 5598 5598 5596 5595 5593 5592 5592 5591 5591 5588 5586 5585 5584 5582 5581
5561 5558 5559 5562 5562 5563 5565 5571 5575 5578 5585 5584 5587 5592 5606 5609 5610 5609 5607 5605 5604 5602 5601 5600 5599 5598 5596 5594 5592 5591 5591 5589 5587 5586 5585 5585 5585 5583 5581 5579 5578 5578 5576 5575
5565 5562 5559 5560 5565 5566 5568 5577 5579 5580 5581 5591 5580 5585 5603 5606 5603 5603 5603 5602 5600 5598 5597 5595 5593 5592 5590 5587 5585 5585 5585 5583 5581 5580 5579 5578 5577 5576 5575 5573 5572 5571 5570 5569
5567 5565 5560 5560 5563 5568 5568 5574 5577 5580 5587 5593 5578 5588 5607 5599 5596 5596 5596 5596 5595 5593 5592 5590 5588 5586 5584 5581 5580 5579 5578 5577 5575 5574 5573 5572 5570 5568 5568 5565 5564 5563 5563 5562
5571 5567 5558 5556 5557 5562 5568 5571 5569 5576 5574 5581 5595 5597 5604 5596 5594 5592 5592 5591 5590 5588 5586 5584 5581 5580 5578 5575 5573 5572 5571 5570 5568 5567 5566 5565 5563 5561 5560 5558 5556 5555 5554 5553
5567 5563 5560 5557 5557 5557 5561 5565 5567 5571 5574 5585 5595 5597 5604 5598 5595 5591 5589 5587 5585 5582 5580 5578 5575 5572 5570 5568 5565 5564 5563 5562 5560 5559 5558 5556 5555 5553 5551 5550 5548 5547 5546 5544
5563 5563 5560 5559 5560 5565 5559 5560 5565 5569 5570 5578 5588 5602 5599 5596 5593 5590 5587 5584 5582 5578 5575 5572 5569 5566 5563 5560 5558 5556 5555 5553 5552 5550 5549 5548 5546 5544 5543 5541 5540 5539 5537 5535
5558 5563 5563 5562 5555 5552 5557 5562 5564 5569 5566 5566 5576 5593 5590 5586 5584 5583 5582 5579 5576 5573 5569 5566 5563 5560 5556 5554 5552 5549 5548 5546 5544 5542 5540 5539 5538 5536 5535 5533 5532 5530 5529 5527
5556 5561 5564 5566 5557 5550 5554 5555 5555 5557 5561 5562 5571 5590 5583 5578 5577 5576 5575 5573 5570 5566 5563 5560 5557 5554 5551 5548 5545 5543 5540 5538 5535 5533 5532 5531 5530 5528 5527 5525 5523 5521 5519 5517
5553 5558 5563 5571 5571 5562 5556 5554 5551 5552 5557 5566 5572 5584 5584 5578 5574 5573 5570 5568 5565 5561 5557 5555 5552 5549 5544 5541 5538 5535 5532 5529 5526 5524 5523 5522 5521 5519 5518 5516 5513 5511 5508 5506
5549 5554 5552 5554 5551 5549 5553 5555 5551 5550 5562 5566 5578 5573 5580 5578 5572 5569 5566 5562 5558 5555 5551 5548 5545 5543 5538 5534 5530 5527 5524 5521 5518 5516 5514 5513 5511 5509 5507 5505 5503 5500 5497 5495
5543 5546 5543 5544 5543 5541 5543 5553 5553 5551 5554 5558 5562 5567 5575 5569 5564 5561 5558 5555 5552 5550 5546 5542 5538 5534 5531 5527 5523 5519 5516 5512 5509 5507 5505 5503 5500 5498 5496 5494 5492 5490 5487 5484
5538 5539 5538 5548 5538 5538 5555 5565 5558 5555 5556 5557 5560 5569 5566 5559 5555 5555 5552 5549 5547 5544 5540 5535 5531 5527 5523 5519 5515 5511 5507 5503 5500 5498 5495 5492 5490 5488 5486 5483 5481 5478 5476 5473
5531 5532 5531 5534 5534 5540 5571 5556 5555 5553 5555 5552 5554 5557 5554 5552 5549 5546 5544 5542 5541 5537 5532 5527 5523 5519 5514 5509 5504 5500 5496 5493 5490 5487 5485 5482 5479 5477 5474 5471 5468 5466 5463 5460
5520 5525 5525 5524 5534 5550 5559 5550 5543 5544 5551 5550 5546 5547 5543 5537 5536 5539 5534 5532 5531 5527 5523 5519 5513 5509 5503 5499 5494 5490 5486 5483 5480 5477 5474 5471 5468 5465 5462 5459 5457 5454 5451 5448
5501 5510 5516 5517 5521 5540 5557 5542 5534 5535 5546 5546 5539 5537 5532 5527 5535 5538 5527 5521 5518 5514 5510 5506 5502 5498 5493 5489 5483 5479 5477 5473 5470 5467 5463 5459 5455 5452 5450 5447 5444 5440 5437 5434
5495 5497 5503 5510 5515 5538 5542 5528 5523 5533 5545 5534 5529 5527 5522 5522 5526 5521 5514 5510 5506 5502 5498 5494 5490 5486 5482 5477 5472 5469 5467 5463 5459 5455 5451 5447 5444 5440 5437 5434 5431 5427 5424 5421
5508 5503 5500 5504 5506 5525 5526 5517 5524 5533 5526 5521 5518 5515 5512 5511 5508 5504 5501 5498 5494 5490 5486 5482 5478 5475 5470 5465 5461 5459 5456 5452 5447 5443 5439 5436 5432 5428 5424 5422 5419 5415 5411 5408
5502 5511 5512 5512 5523 5522 5514 5517 5516 5512 5512 5510 5508 5504 5500 5498 5497 5493 5490 5486 5483 5479 5475 5470 5467 5463 5459 5454 5450 5448 5445 5440 5435 5432 5428 5425 5421 5417 5413 5409 5406 5403 5399 5396
5492 5485 5491 5494 5508 5508 5503 5502 5500 5498 5498 5498 5495 5492 5488 5487 5486 5482 5479 5475 5471 5467 5463 5458 5454 5452 5449 5444 5439 5436 5432 5427 5424 5421 5417 5413 5409 5406 5402 5397 5393 5390 5387 5384
5493 5475 5477 5486 5497 5494 5495 5492 5491 5488 5486 5483 5481 5479 5477 5475 5473 5471 5468 5464 5460 5455 5451 5446 5443 5440 5437 5433 5428 5424 5420 5415 5412 5409 5405 5401 5397 5394 5391 5387 5383 5379 5376 5371
5478 5475 5477 5490 5493 5487 5491 5486 5481 5477 5475 5473 5470 5468 5465 5462 5461 5458 5456 5452 5448 5443 5439 5434 5431 5428 5425 5421 5417 5413 5408 5403 5400 5397 5394 5390 5386 5382 5378 5375 5373 5370 5364 5360